DECAYED

STARLINK-1369, 45541 (Decayed)

Orbit data source: Space-Track

STARLINK-1369, 45541 was a payload satellite owned by SpaceX/Seattle (US) in LEO that was launched on Wed, 22 Apr 2020 UTC via an FALCON 9 launch vehicle from the Air Force Eastern Test Range (AFETR). Payload-class satellites include a variety of spacecraft equipped with specific instruments for various scientific and technological missions. These include communications satellites like Starlink; space stations such as the ISS; scientific satellites like the Hubble; Earth observation satellites from companies like Planet Labs, Umbra, and HawkEye 360; GPS; miniature CubeSats for education and research; and military/defense satellites.

Not visible in the next 10 days
Identifier
45541, 2020-025L
Orbit
Decayed
Country
Flag of USUS
Related business
Manufacturer
SpaceX/Seattle
Mission
Decayed Commercial Communications
Bus & Motor
STARLINK, Unknown motor
Mass
260 kg wet, ~248 kg dry
Launch date (UTC)
2020-04-22 (6 years ago)
Launch vehicle
FALCON 9
Launch site
Air Force Eastern Test Range (AFETR)
Object type
Payload
Rocket body
Debris
Shape & HBR
Box + 1 Pan, 10.1 m
Radar Cross Section
13.562 m², Large (>1 m²)

Expand to show TLE details & history
Last TLE update: 1 year ago

TLE from 1 year ago
0 STARLINK-1369
1 45541U 20025L   25095.61838644  .13145206  12523-4  57855-3 0  9991
2 45541  53.0382 139.9484 0004271 341.4962 158.5750 16.43361102274093
Epoch: 2025-04-05T14:50Z
TLE epoch observation values (Epoch: 2025-04-05T14:50:28.588Z)
Latitude
30.94272°
Longitude
-123.48012°
Altitude
161.317 km
Speed
7.812 km/s
True Right ascension
19h 33m 11s
True Declination
30° 46' 39"
Sunlit
Object was in daylight at epoch
Visualization orbit readout
Latitude
Unknown
Longitude
Unknown
Altitude
Unknown
Speed
Unknown
Apparent Right ascension
Unknown
Apparent Declination
Unknown
Sunlit
N/A
Visualization observer readout
Local Sidereal Time
04:29:57
Azimuth
Unknown
Elevation
Unknown
Doppler factor
Unknown
Orbital elements
Apogee altitude
159.957 km
Perigee altitude
154.375 km
Semi-major axis
6,535.303 km
Eccentricity
0.00043
Inclination
53.0382°
RAAN
139.9484°
Arg. of periapsis
341.4962°
True anomaly
158.59287°
Mean anomaly
158.575°
Eccentric anomaly
158.58394°
Mean motion
4.10813 °/min
Orbital period
87.63 mins
BSTAR
0.00057855
Loading maneuver chart data...
Computing Atmospheric mass density...
Loading historical data...
Loading historical data...
Loading historical data...
Loading historical data...
Loading historical data...
Loading historical data...
Loading historical data...

Documentation

Showing up to 5 results
|